Wind_Speed
18 20 22 26 32 39 44 46 46 45 42 41 40 37 35 34 32 33 34 33 34 35 36 37 37 39 41 42 42 42 43 43 43 42 42 43 44 45 46 46 46 46 45 46 47 48 47 47 48 49 50 52 53 53 53 54 54 54 56 57 59 58 55 56 59 62 63 62 62 62 63 65 67 69 68 68 69 70 72 74 75 76 77 78 78 78 79 79
18 19 22 26 31 38 43 45 45 44 42 41 42 39 37 39 38 37 37 36 36 37 37 37 37 38 40 43 42 42 43 44 44 45 45 45 46 47 47 48 47 46 45 45 46 48 48 48 49 49 51 53 55 56 57 58 58 57 59 60 61 59 58 60 64 66 66 64 62 63 66 68 70 71 71 72 72 73 74 75 76 78 79 80 81 81 81 81
18 19 21 25 30 35 42 46 46 45 43 41 41 40 38 38 40 40 41 40 39 39 38 37 37 38 40 42 43 42 42 43 44 45 46 47 47 48 48 48 48 47 47 47 47 49 50 51 51 51 52 53 55 56 58 60 60 60 62 63 63 62 62 64 68 70 70 67 65 65 67 70 73 74 75 76 76 76 77 78 79 81 82 82 83 83 83 83
17 18 20 24 28 33 39 45 48 46 46 44 40 42 41 36 36 37 39 41 41 40 38 38 38 39 40 41 42 42 42 42 44 45 46 48 49 50 50 49 49 49 49 50 50 51 53 53 54 54 54 54 56 57 58 61 62 63 65 66 66 66 67 69 71 72 72 70 68 66 68 72 75 78 79 79 80 80 81 82 83 84 85 86 87 87 87 87
17 18 20 23 26 31 36 42 48 48 48 47 42 41 43 38 36 36 35 38 40 39 38 39 40 40 42 42 43 43 43 43 45 46 47 49 50 52 52 52 52 52 52 52 53 54 54 55 56 56 57 57 58 60 60 63 65 66 69 71 71 72 72 73 74 74 73 72 70 68 70 74 77 80 81 82 83 84 85 86 87 87 88 90 91 91 91 91
17 18 19 22 25 28 33 38 46 50 50 49 45 43 44 43 43 41 38 37 38 40 40 40 42 42 43 44 45 46 46 46 46 48 49 51 52 53 54 54 55 54 54 55 56 57 57 58 58 59 59 59 59 61 62 65 67 68 70 72 73 75 74 75 76 75 74 74 74 74 75 77 78 80 82 84 85 86 87 88 90 91 91 93 94 95 95 95
16 18 19 21 23 26 30 34 41 48 51 50 47 46 46 47 48 48 45 42 40 40 40 41 43 44 45 46 47 48 48 48 48 49 51 53 54 55 56 56 57 57 57 57 57 58 59 60 61 62 62 62 62 63 64 65 68 69 70 71 72 74 75 75 75 75 75 75 76 78 79 79 80 81 83 85 87 88 89 90 91 92 93 94 96 98 99 99
16 17 19 20 22 25 28 31 35 42 49 52 50 48 48 48 48 49 49 49 46 44 44 44 44 45 47 48 48 48 49 49 50 50 52 53 54 55 56 57 58 59 59 60 60 60 60 60 62 63 64 64 65 66 67 69 71 73 73 73 73 74 75 76 75 73 74 76 78 79 79 79 80 81 83 85 87 89 91 92 92 93 93 94 96 97 99 101
15 16 18 19 21 23 25 28 31 36 43 50 53 52 50 49 49 49 50 51 51 50 50 49 48 49 49 50 51 51 52 52 53 54 55 56 56 57 58 58 59 60 61 61 62 62 62 62 63 64 65 65 66 67 69 71 73 76 78 78 77 77 78 80 79 77 78 80 81 81 81 81 81 82 83 85 87 88 89 91 92 93 93 94 95 96 98 100
14 15 17 18 20 22 24 26 29 32 36 42 49 53 54 53 51 50 50 51 53 54 55 55 54 55 55 54 55 55 56 56 57 58 59 59 60 61 62 63 63 64 64 65 65 65 65 66 67 68 69 70 71 71 73 74 76 77 80 82 82 81 83 84 85 85 85 86 86 86 85 85 84 84 85 86 88 88 89 90 91 92 92 93 94 95 96 97
13 14 16 17 19 21 23 26 28 31 34 37 41 47 51 54 54 54 53 52 53 54 56 58 58 59 59 59 59 60 60 60 61 62 63 64 65 65 66 67 68 69 70 70 70 71 73 74 75 76 77 77 78 79 80 81 82 82 84 86 86 86 87 88 89 90 90 90 89 89 89 88 88 88 88 89 90 90 91 92 93 94 95 95 96 97 98 99
12 14 15 17 18 20 22 25 27 30 33 36 39 41 45 48 52 54 55 55 55 56 57 59 60 61 62 62 62 63 64 65 66 67 68 69 70 71 72 73 74 75 76 77 78 79 80 81 82 82 82 82 83 84 86 86 87 87 88 89 88 88 89 91 91 92 92 92 92 92 92 92 92 92 92 92 93 93 94 95 96 97 98 99 100 102 103 104
12 13 14 16 18 20 22 24 26 28 30 33 36 39 42 45 47 50 53 55 56 57 58 59 60 61 62 63 64 66 67 68 69 70 71 73 74 76 77 78 79 80 81 82 83 83 84 84 84 84 84 84 84 85 86 87 86 87 89 89 89 89 91 92 93 93 93 94 94 95 95 95 95 95 95 96 97 97 98 99 100 101 102 104 105 106 108 109
13 12 13 15 17 19 21 23 25 27 29 31 33 36 39 42 44 47 50 52 54 57 58 59 60 61 62 63 65 66 67 69 70 71 73 74 75 76 78 79 80 81 82 83 84 85 85 85 86 86 86 86 87 88 88 89 89 90 92 92 92 92 94 94 95 96 96 97 97 98 99 99 100 100 101 102 103 104 105 106 107 108 110 111 113 114 115 117
13 13 13 14 15 17 18 20 22 24 26 29 31 33 35 37 39 42 45 48 51 54 56 58 60 62 63 64 66 67 68 69 70 71 72 73 74 75 76 77 79 80 81 82 83 84 84 85 85 86 87 88 89 90 91 91 92 93 96 97 97 97 98 98 99 100 101 102 103 104 105 106 106 107 108 109 110 111 112 113 114 116 117 118 119 120 121 122
13 12 13 14 15 16 17 18 20 22 23 25 27 29 31 33 35 37 39 41 44 47 50 53 55 58 61 63 65 67 68 69 71 72 73 74 75 76 77 78 79 80 82 83 84 84 85 85 86 87 88 88 89 90 91 91 92 94 96 98 99 99 100 101 101 103 104 104 105 106 107 108 109 110 111 112 113 114 115 116 117 118 119 120 121 122 123 123
12 12 13 15 16 16 17 18 20 21 22 23 24 25 27 28 30 32 34 36 39 41 43 46 48 50 53 55 58 60 62 64 66 68 70 72 73 75 76 77 79 79 80 82 83 83 84 84 84 85 86 86 87 88 89 89 89 90 92 93 95 96 96 97 98 99 100 100 102 103 104 105 106 107 108 109 110 111 112 113 115 116 116 117 118 119 120 121
12 13 14 16 16 17 18 19 19 20 20 20 21 21 22 24 25 27 29 31 32 34 36 38 40 41 43 46 48 50 52 54 56 58 60 62 64 65 67 69 69 70 71 73 73 74 74 75 75 76 77 77 78 80 80 81 81 82 84 85 87 88 89 90 90 91 92 93 95 97 98 98 100 101 102 103 104 105 107 108 109 110 110 111 112 113 114 115
13 14 15 16 17 18 18 18 17 17 17 17 17 18 19 20 22 23 25 27 28 29 31 33 35 36 38 40 42 45 47 48 50 52 53 55 56 58 59 61 61 62 64 65 66 66 66 66 66 67 67 68 69 70 71 72 72 72 73 75 76 78 79 80 80 82 84 86 88 90 92 93 95 96 97 98 100 101 103 104 105 106 107 108 109 110 111 112
14 15 16 17 17 17 16 15 15 15 15 15 16 17 18 20 22 23 25 27 29 30 32 34 36 38 40 42 44 45 47 48 50 51 52 53 54 55 56 56 57 57 58 59 58 58 58 58 58 58 58 58 59 60 61 62 63 64 65 66 67 69 70 70 71 72 74 76 78 80 83 85 87 89 91 93 94 96 98 99 101 102 104 105 107 108 109 110
14 15 16 16 16 15 14 13 13 13 14 15 17 18 20 22 23 25 27 29 31 33 35 37 38 40 42 43 45 46 47 49 50 50 50 50 49 49 49 49 49 49 49 50 51 50 50 51 51 51 51 51 52 53 54 55 57 58 59 60 62 64 65 65 64 65 67 69 70 71 73 75 77 79 81 83 85 86 88 90 91 93 95 97 98 100 102 103
15 16 15 15 14 13 12 11 12 13 15 17 18 20 23 25 26 28 30 32 34 36 37 39 40 42 43 45 46 46 47 47 46 45 44 43 43 42 42 43 43 43 44 44 45 45 45 45 46 46 47 47 47 48 50 51 53 54 56 57 58 60 61 62 61 61 63 65 66 67 69 71 73 74 76 77 79 80 82 83 85 87 89 90 92 94 95 97
15 14 14 13 12 11 10 11 13 15 17 19 21 23 26 28 30 32 34 36 37 39 40 41 43 44 45 46 45 44 42 41 40 40 40 40 40 40 39 39 39 38 39 39 40 40 41 42 43 44 45 46 46 47 48 50 52 53 55 56 58 59 60 61 60 60 62 63 64 66 69 71 73 74 76 77 78 79 81 83 84 86 88 89 91 93 94 96
13 13 12 11 10 10 12 13 15 17 19 22 24 26 28 31 33 35 37 39 41 42 43 44 45 45 44 42 40 38 37 37 37 37 37 37 36 36 35 35 35 35 35 35 36 37 38 40 41 43 44 46 47 47 48 49 50 52 53 55 57 58 60 61 61 61 63 64 65 66 69 72 74 76 77 78 80 81 82 84 85 87 89 91 92 94 96 98
12 11 10 9 10 11 14 16 18 20 22 25 27 29 31 34 37 39 41 42 43 44 44 45 43 41 38 36 36 35 35 35 35 34 33 32 32 31 31 31 32 33 34 35 36 37 39 40 41 42 44 45 46 47 48 49 50 51 53 54 57 59 60 62 63 63 65 66 67 68 70 72 75 78 80 81 82 83 85 86 88 90 91 93 95 96 98 100
11 9 9 10 11 13 15 18 20 23 25 27 29 32 35 38 40 41 42 43 45 44 42 40 37 35 34 34 34 33 33 32 31 30 29 29 29 29 29 30 32 33 35 36 37 39 39 40 41 42 44 45 46 48 49 50 52 53 55 56 58 60 62 64 65 66 67 68 70 71 73 73 76 80 83 84 85 86 88 89 91 93 94 96 97 99 101 103
9 8 9 11 13 15 17 20 23 25 28 30 33 35 38 40 42 42 44 44 43 40 37 34 33 33 33 32 31 30 29 28 27 27 26 27 28 29 30 32 34 35 36 37 38 39 40 41 42 43 45 46 48 49 51 52 54 55 57 59 61 62 64 66 68 69 70 70 72 74 75 76 77 81 85 86 88 89 90 92 94 96 97 99 100 101 103 105
8 9 11 12 15 17 20 23 26 28 31 33 36 38 40 41 42 43 43 41 38 35 33 32 32 31 30 29 28 26 26 25 25 25 26 27 29 31 32 34 35 36 36 37 39 40 41 42 43 45 46 48 49 51 52 54 55 57 58 59 61 63 64 66 68 71 71 72 73 75 77 77 78 81 84 86 87 89 90 92 94 96 98 99 100 102 103 105
9 10 12 14 17 20 23 26 29 31 33 36 38 40 41 42 43 42 40 36 34 32 32 31 29 28 26 25 24 23 24 24 25 27 28 30 31 32 33 34 36 38 38 38 39 40 41 43 45 47 48 49 51 52 53 54 55 57 58 59 60 62 64 65 67 70 72 73 73 74 76 77 76 79 82 83 83 85 87 89 91 93 95 96 97 99 101 102
10 12 14 17 19 22 26 29 31 33 36 38 40 41 42 43 42 38 35 33 32 31 30 28 26 25 23 23 22 23 24 25 27 29 31 32 33 34 35 35 37 38 39 39 40 41 43 44 46 47 49 50 52 53 54 55 56 58 59 60 61 63 64 66 67 68 71 72 72 72 73 74 73 74 76 78 79 80 82 84 86 88 90 91 93 94 96 98
11 14 16 19 22 25 28 31 33 35 38 40 41 42 42 42 38 34 32 32 31 29 27 25 24 23 22 22 23 23 25 26 28 29 31 31 32 33 34 35 36 38 40 41 43 44 45 46 47 48 50 51 53 55 56 57 58 59 60 61 62 63 64 65 67 68 69 70 69 68 70 71 71 71 72 73 75 77 78 80 82 84 85 87 89 91 93 94
13 16 19 22 25 27 30 33 35 37 39 40 41 43 42 38 33 32 31 30 28 26 25 23 22 22 22 23 24 25 27 29 30 31 32 32 33 34 35 36 37 38 41 43 45 47 47 48 50 51 53 54 55 56 58 58 59 59 60 61 62 63 64 65 67 68 69 70 69 67 68 70 71 72 72 72 74 75 77 78 79 81 83 85 87 89 91 92
15 19 22 24 27 30 32 35 37 39 40 41 42 42 38 34 32 31 29 27 25 24 22 21 21 22 23 24 26 28 29 30 31 32 33 34 35 36 37 38 40 41 43 44 45 47 48 50 52 54 55 56 58 59 60 60 60 60 60 61 62 63 64 64 65 65 67 69 69 68 68 68 69 71 72 73 74 75 76 76 78 79 81 83 85 87 89 90
18 21 24 27 29 32 34 36 38 40 41 42 42 39 34 31 31 29 27 25 23 22 21 21 21 23 24 26 28 29 30 31 31 32 33 34 35 36 37 40 42 44 45 45 46 48 50 52 53 55 56 58 59 60 60 60 60 59 59 59 61 62 63 63 62 62 62 65 67 67 67 66 66 69 70 70 72 73 74 75 76 78 79 81 83 84 86 87
20 23 26 29 32 34 36 38 40 40 41 42 40 35 31 30 28 26 24 23 22 21 21 22 23 24 26 27 29 30 31 32 32 33 34 35 37 39 41 43 44 45 46 47 49 51 52 53 55 57 58 59 60 59 59 59 58 58 58 59 60 62 63 62 62 61 61 63 65 65 65 64 64 66 67 67 69 70 71 72 73 74 76 77 79 80 82 83
22 25 29 31 34 36 37 39 40 41 42 41 36 32 30 28 26 24 23 21 21 21 21 23 24 26 27 28 29 30 31 33 34 35 36 37 40 42 43 44 45 46 48 50 52 53 54 55 57 59 60 60 60 59 59 58 57 58 58 59 61 62 62 62 62 62 61 60 61 63 64 62 60 61 64 64 65 66 67 67 68 70 72 73 74 75 77 78
24 28 31 34 36 37 39 40 41 42 42 37 32 30 28 26 24 23 21 21 21 21 22 24 25 27 28 29 29 30 31 33 34 36 37 40 42 43 43 44 46 48 50 51 53 54 56 57 59 60 61 62 61 60 58 57 56 57 58 59 60 61 61 60 59 58 56 54 55 59 61 59 56 57 58 59 60 61 62 63 64 66 68 69 69 70 71 72
27 30 33 35 37 38 39 40 41 42 39 33 30 28 26 24 23 22 21 21 21 22 24 25 27 28 28 29 30 31 32 33 35 37 40 41 42 43 44 45 47 49 51 52 54 56 58 59 61 62 62 62 61 59 58 57 56 57 58 58 59 59 60 59 57 55 52 49 49 54 56 54 53 54 55 56 57 58 59 60 61 63 64 64 65 67 68 69
29 32 35 37 38 39 40 40 41 40 35 30 28 27 24 23 22 21 21 21 22 24 25 26 27 28 29 30 31 32 33 35 37 40 41 42 43 44 46 47 48 50 51 53 55 58 60 61 63 63 63 61 59 58 57 56 55 56 56 57 57 57 57 58 57 55 52 48 47 49 51 51 51 52 53 54 55 56 56 57 59 60 61 62 64 65 65 66
32 35 37 38 38 39 40 41 41 37 31 29 27 25 23 23 22 22 22 22 23 25 26 27 28 29 30 31 32 33 35 37 40 41 42 43 44 46 47 48 49 51 53 55 57 60 61 63 63 63 61 60 57 56 55 55 54 54 55 55 55 55 56 56 57 56 53 50 48 49 49 49 50 51 52 53 53 53 55 56 58 59 60 61 62 63 63 64
34 36 38 38 39 40 40 41 39 34 29 28 26 24 23 22 22 22 22 23 25 26 27 28 29 30 31 32 32 34 37 40 41 42 43 44 46 47 48 49 51 54 56 58 60 61 63 64 63 62 59 57 55 53 53 53 54 53 53 53 53 53 53 54 55 55 53 51 49 50 50 48 49 50 50 52 53 53 54 56 57 59 59 60 61 62 62 63
36 38 39 39 40 40 41 41 37 31 28 27 24 23 23 22 22 22 23 24 26 27 27 28 30 31 31 32 34 36 39 41 42 43 44 45 47 48 50 52 55 57 59 61 62 64 64 64 63 61 58 56 54 51 50 51 52 53 54 53 52 51 50 51 52 53 54 52 49 50 52 51 49 50 51 52 53 54 55 58 58 59 60 61 61 62 62 62
37 39 39 39 40 40 41 39 33 29 27 26 24 23 22 22 22 23 24 25 26 27 28 29 30 31 32 33 35 38 41 43 44 44 45 46 48 50 52 55 58 60 62 63 65 65 65 64 62 60 58 55 53 51 49 49 50 52 54 55 53 51 49 49 51 52 54 55 52 51 54 55 52 52 53 54 55 56 58 60 61 62 63 64 64 65 65 65
38 39 39 40 40 41 41 36 30 28 27 25 24 23 22 23 23 24 25 27 27 29 30 30 31 32 33 34 37 40 42 44 45 45 46 48 50 52 55 58 60 62 64 65 66 65 64 62 61 59 57 55 52 50 49 49 49 50 53 55 55 54 51 49 50 53 55 58 58 54 55 58 59 57 57 58 59 59 61 64 65 66 68 68 69 69 69 69
39 39 40 40 40 41 39 33 29 27 26 24 24 23 23 24 24 25 27 28 29 30 30 31 31 32 33 36 39 41 44 46 47 47 48 50 53 55 58 60 63 65 66 66 66 65 63 61 59 57 55 53 50 48 47 47 48 49 51 54 56 57 56 52 51 53 55 58 62 61 58 59 63 64 63 63 64 64 65 69 71 72 73 75 75 75 75 75
39 39 40 40 40 40 36 31 28 27 25 24 24 23 24 24 25 26 27 29 30 31 31 32 32 33 34 37 40 43 45 47 48 48 50 52 55 58 60 63 65 66 66 66 65 64 62 60 58 56 54 53 50 48 47 46 47 48 50 53 56 58 59 58 54 55 58 59 62 65 64 62 64 67 69 69 71 71 71 74 76 77 79 81 82 82 82 81
39 39 40 40 41 39 33 29 28 27 25 24 24 24 24 24 25 27 28 29 30 31 31 32 33 34 36 39 42 44 47 49 50 50 52 55 58 60 63 65 66 66 65 65 64 62 62 60 58 56 54 53 52 50 49 48 47 48 51 53 57 59 61 62 59 58 60 61 61 65 68 68 67 69 72 73 75 76 76 77 80 81 83 85 86 86 86 85
39 39 39 40 40 37 31 29 28 26 25 25 24 24 25 25 26 28 29 30 31 31 32 32 33 35 38 41 43 46 49 50 51 53 55 58 61 63 65 65 65 65 64 63 62 61 60 59 59 58 56 54 54 52 51 50 50 50 52 54 57 60 62 64 62 60 61 63 63 64 68 70 70 71 72 75 77 78 78 79 81 83 84 86 88 89 89 89
39 39 39 40 39 34 30 29 28 26 25 25 25 25 25 26 27 29 30 31 32 32 33 33 34 36 39 42 45 48 50 52 53 55 58 61 63 65 65 65 64 63 62 61 60 59 58 58 59 60 59 57 57 56 54 53 53 53 55 56 58 61 63 65 65 62 61 64 65 65 66 69 71 72 73 75 77 79 80 80 82 84 85 88 90 91 92 92
39 39 40 40 37 32 30 29 27 26 26 25 25 26 26 27 28 29 31 32 33 33 34 34 36 37 40 43 46 49 52 53 55 58 61 63 65 65 64 63 63 62 61 60 59 58 57 58 58 59 61 59 59 60 58 56 55 55 56 57 59 61 64 67 67 64 63 64 66 67 67 68 70 73 75 76 78 80 81 82 84 86 87 89 92 93 95 95
39 39 40 40 35 30 29 29 27 26 26 25 26 26 26 27 29 30 32 33 34 34 34 35 37 39 42 45 48 51 54 55 58 61 63 65 65 64 63 62 62 61 61 60 58 57 57 57 57 58 60 60 60 60 61 59 56 56 57 57 59 61 63 67 70 68 66 66 67 68 69 70 71 72 75 77 79 81 83 83 85 86 88 90 93 95 96 98
38 39 40 38 32 29 30 28 27 26 26 26 26 26 27 28 29 31 33 35 35 35 36 37 39 41 44 47 51 53 55 57 60 62 64 64 64 62 61 61 61 61 61 60 59 57 57 57 57 57 59 60 60 60 61 60 57 56 57 57 58 60 62 66 70 71 69 68 69 69 70 72 72 73 74 76 79 82 84 84 85 87 89 91 94 96 97 99
Wind_Direction
219 213 209 207 204 203 202 203 206 209 214 219 221 222 226 230 234 237 239 241 243 247 249 250 251 252 252 250 247 247 249 250 251 251 252 254 256 257 256 256 256 257 258 259 257 255 255 256 257 258 258 258 258 257 257 256 256 256 256 256 256 255 255 256 257 257 256 256 257 259 259 259 259 259 259 258 258 258 258 258 258 258 259 259 258 258 258 258
222 215 210 207 205 204 204 205 206 208 213 219 224 225 228 231 234 237 238 240 243 245 246 248 250 250 252 254 253 252 253 255 257 257 256 255 255 257 259 260 260 259 259 261 259 256 257 259 260 261 261 261 260 260 259 259 259 258 258 258 258 257 257 257 257 257 257 256 256 258 260 260 260 260 260 260 259 258 258 259 259 259 259 259 259 259 258 258
222 217 211 209 207 205 205 206 205 207 210 216 222 224 228 235 239 240 240 241 244 247 248 248 250 250 250 253 256 257 257 257 258 259 260 261 260 260 262 263 264 264 263 263 261 259 259 261 263 263 263 264 263 261 261 261 260 259 259 260 260 260 259 259 260 260 259 258 257 257 260 262 262 261 260 260 259 259 259 259 259 259 259 258 259 259 259 258
221 219 214 211 210 207 207 207 206 208 209 213 218 222 224 228 233 238 240 242 245 248 249 249 250 251 251 252 254 255 256 257 258 259 260 262 264 265 266 266 267 268 267 266 264 263 263 263 264 265 265 265 265 264 262 262 261 260 260 261 262 263 263 262 262 262 262 261 259 259 261 262 263 263 262 261 261 260 260 259 259 259 260 259 259 258 259 259
222 221 217 213 212 211 209 208 208 208 210 213 216 219 221 219 221 228 235 240 243 246 248 250 252 252 253 254 253 253 254 255 256 258 259 260 261 264 266 267 268 269 270 270 269 268 267 267 267 267 266 265 266 266 265 264 263 262 262 263 264 265 265 264 263 263 263 263 263 262 262 263 263 264 264 263 262 261 261 260 260 260 260 261 261 260 260 259
224 222 220 216 214 214 213 211 210 210 211 215 217 218 219 220 224 227 228 232 237 241 244 246 249 250 251 252 253 255 256 257 257 258 258 259 260 262 264 265 267 268 269 270 271 272 272 272 272 272 271 269 268 267 267 266 264 263 263 264 266 266 265 265 265 265 264 265 265 265 264 264 264 265 265 265 264 263 262 261 260 260 260 261 261 262 262 261
225 223 221 218 217 216 217 216 214 213 213 217 220 221 222 225 230 232 231 230 231 235 238 240 242 245 246 248 249 252 254 256 257 258 259 259 260 261 262 263 264 265 266 268 269 270 270 271 272 273 274 274 273 272 271 270 269 268 266 266 266 266 266 265 265 266 266 266 266 266 265 265 265 265 265 266 266 265 264 262 261 261 261 261 261 262 263 263
225 223 222 221 220 220 220 220 219 218 217 219 223 225 227 229 231 234 234 233 233 234 236 238 239 241 243 245 246 247 250 252 254 256 256 257 257 258 259 261 262 263 264 266 267 267 268 268 269 270 271 272 273 274 274 274 274 274 273 272 270 270 271 270 269 268 269 269 268 268 267 267 267 266 266 266 266 266 265 265 264 263 262 262 262 262 263 264
227 226 224 224 224 224 224 224 224 224 223 222 225 228 230 232 233 235 236 236 235 236 237 239 240 242 243 245 246 246 248 250 252 253 253 254 255 256 257 259 259 260 261 262 263 264 265 266 267 268 269 269 270 271 271 272 273 273 274 275 275 275 275 276 275 274 274 273 272 271 271 271 270 269 269 268 267 267 267 267 266 266 265 264 264 264 264 264
229 230 229 228 227 227 228 227 228 228 229 228 228 230 232 234 237 238 238 239 239 238 239 240 242 243 245 247 247 247 248 249 250 252 253 253 254 255 256 257 258 258 259 259 260 261 262 263 264 266 267 268 269 269 269 270 270 270 271 273 274 275 275 276 277 276 275 274 274 274 274 273 273 272 271 270 270 269 269 269 269 268 268 267 266 266 266 265
232 235 234 233 231 230 229 229 230 231 232 233 234 234 235 237 239 240 242 242 243 242 242 243 244 246 247 248 249 249 250 250 251 253 254 255 256 256 257 258 259 259 259 259 260 261 262 263 264 265 266 267 268 268 268 268 268 268 269 270 272 272 273 273 274 274 274 274 274 275 275 274 274 273 272 272 272 272 271 271 271 271 271 271 270 270 269 269
238 240 239 238 236 234 233 232 232 233 234 236 237 238 239 240 241 243 244 245 246 247 247 247 247 249 250 251 252 253 253 254 255 256 256 257 258 259 259 260 261 262 263 263 264 265 266 267 268 268 269 269 269 269 268 268 268 269 269 270 271 271 271 272 272 272 273 274 275 275 275 274 274 273 273 273 273 272 272 272 272 272 272 272 272 272 271 271
249 247 243 241 240 239 238 238 237 237 238 238 240 241 242 243 244 245 246 247 249 250 251 251 252 252 253 255 255 256 257 258 259 259 260 260 261 262 262 263 263 264 265 266 267 268 269 269 270 270 270 270 270 270 270 270 271 271 271 271 271 271 270 271 271 271 272 272 272 272 272 273 273 272 272 272 272 272 272 272 272 271 271 271 271 271 271 271
259 256 251 247 245 244 244 244 245 244 244 244 244 245 245 246 247 248 248 249 250 251 253 254 255 255 256 257 257 258 259 260 261 262 263 263 263 264 265 265 266 266 267 267 268 269 269 270 270 270 270 270 270 270 270 270 271 270 270 270 270 269 269 270 270 270 270 270 270 271 271 271 271 271 271 271 271 271 271 271 271 271 271 271 271 271 271 271
263 261 258 257 255 255 254 253 253 252 251 250 250 249 250 250 250 251 251 252 252 253 254 255 256 256 256 257 258 259 260 261 262 263 263 264 265 265 266 267 267 268 268 269 269 270 270 271 271 271 271 271 271 271 271 271 271 271 271 271 271 270 270 270 270 270 270 270 271 271 271 271 271 271 271 271 271 271 271 271 271 271 271 271 271 271 271 271
262 262 264 267 268 268 266 265 264 262 260 258 257 256 255 254 254 254 254 254 255 255 256 256 257 257 258 259 259 260 261 262 263 263 264 265 266 266 267 267 268 268 269 270 270 270 271 271 271 272 272 272 272 272 272 272 272 272 271 272 272 272 272 272 271 271 271 271 272 271 271 272 271 271 271 271 271 271 270 270 270 270 271 271 271 271 271 271
260 266 271 275 277 277 277 275 273 270 268 266 263 261 260 258 258 257 257 257 257 257 258 259 260 261 262 262 263 263 264 264 265 265 266 266 267 268 268 269 269 270 270 271 271 271 272 272 272 273 273 273 273 273 273 273 273 273 273 273 273 273 273 273 273 272 272 272 272 272 272 272 272 272 272 272 272 271 271 271 271 271 271 271 271 271 271 272
265 273 278 282 284 284 282 280 277 274 271 269 267 266 264 263 263 263 263 264 264 265 266 267 268 268 269 269 269 269 268 268 269 269 269 270 270 270 271 272 272 273 273 273 273 273 274 274 274 274 274 275 275 275 274 274 274 273 273 274 274 274 274 274 274 274 274 274 274 273 273 273 272 272 272 272 272 272 272 272 272 272 272 272 272 272 272 272
274 281 286 288 288 286 284 280 278 275 274 272 271 271 273 274 276 278 279 280 281 281 281 281 281 281 280 279 278 278 277 277 276 276 276 276 276 276 276 276 276 277 277 276 276 276 276 276 276 276 277 277 277 277 277 277 276 276 275 275 275 275 275 275 275 275 275 275 275 275 275 275 275 274 274 273 273 273 273 273 273 273 273 273 273 273 273 273
283 288 291 290 288 285 282 280 279 279 280 282 283 285 288 290 292 294 294 294 293 293 292 291 289 288 287 286 285 284 283 283 282 281 280 280 280 280 280 280 280 280 279 280 280 280 280 280 280 279 279 279 279 279 280 280 279 279 278 278 278 277 277 277 277 277 277 276 276 276 277 277 277 276 276 276 276 275 275 275 275 275 275 274 274 274 274 274
289 292 291 289 286 283 281 282 285 289 291 293 296 298 299 299 299 299 297 296 295 294 293 292 291 290 289 288 287 287 286 286 285 284 284 284 283 283 283 283 283 283 283 283 283 283 283 283 283 283 282 282 282 282 281 282 282 282 282 281 281 281 281 280 280 280 280 279 279 279 279 278 278 278 278 278 278 278 278 277 277 277 277 276 276 276 276 276
292 293 290 286 283 282 286 292 294 297 300 302 304 305 304 302 301 299 298 298 297 297 296 295 295 294 293 292 291 291 290 289 289 289 289 288 288 288 288 287 287 287 287 286 286 286 286 287 287 287 287 286 286 287 287 286 286 286 286 286 285 285 285 284 284 284 283 283 283 283 283 282 281 281 280 280 280 280 280 279 279 279 279 279 278 278 278 277
294 290 286 283 285 290 295 298 300 304 307 308 308 307 305 304 303 303 303 303 303 302 302 301 299 298 297 296 295 294 294 293 293 292 293 293 293 292 292 291 291 291 291 291 292 293 293 293 293 293 293 293 292 292 292 292 292 292 292 292 291 290 290 289 288 288 288 287 287 287 287 286 285 285 284 283 283 282 282 281 281 281 281 280 280 280 279 279
289 285 282 285 291 297 300 303 307 310 310 309 308 308 307 308 308 309 308 308 307 306 304 303 301 300 299 298 297 297 296 296 296 296 296 296 295 296 296 295 295 295 295 295 296 297 297 297 297 297 297 297 296 296 295 295 295 295 295 295 295 294 294 293 292 292 291 290 290 289 288 288 287 286 285 285 284 284 283 282 282 282 281 281 280 280 280 279
283 281 284 290 296 301 306 310 312 311 310 310 310 311 311 312 312 311 310 309 308 306 305 303 302 301 300 300 299 299 299 299 299 299 299 299 299 300 300 300 300 299 299 299 299 299 299 298 299 299 299 299 299 299 298 298 297 297 297 297 296 296 295 295 294 293 292 291 290 289 288 288 288 287 286 285 285 284 283 283 282 281 281 280 280 279 279 279
280 281 286 294 303 308 312 313 314 313 314 314 314 314 314 314 313 312 310 309 307 306 305 304 303 303 303 302 302 302 302 302 302 303 303 303 303 303 302 302 302 302 303 303 302 302 302 302 302 302 302 302 302 302 302 301 300 300 299 299 298 297 296 295 294 293 292 291 290 289 288 287 286 286 285 285 284 284 283 283 282 281 281 280 280 280 279 279
278 283 292 302 309 312 314 316 316 317 318 317 316 316 315 314 312 311 310 309 307 307 306 306 306 306 305 305 305 305 306 306 307 306 306 305 304 305 305 305 305 305 305 305 305 306 306 306 306 306 306 305 305 304 304 303 302 302 301 300 299 298 297 296 295 294 293 292 290 289 288 287 285 284 284 284 284 283 283 282 282 281 280 280 280 279 279 279
278 290 301 309 312 313 316 318 320 320 319 318 317 316 315 314 312 311 311 310 309 309 309 309 308 308 308 308 309 309 309 309 307 306 306 307 308 309 309 309 308 308 308 309 310 310 310 310 309 308 307 306 306 305 305 304 303 303 302 301 300 299 298 297 296 295 293 292 290 289 288 286 285 284 283 283 283 283 282 282 281 281 280 280 280 280 279 279
288 300 308 312 315 317 319 320 321 321 320 319 318 317 315 314 314 313 312 312 312 312 312 311 311 311 310 310 311 311 311 310 310 311 312 313 313 313 313 313 313 313 313 314 313 312 311 310 309 308 308 307 307 306 306 305 303 302 302 301 300 299 298 298 297 296 295 294 292 291 289 288 286 285 284 284 284 283 283 283 282 282 282 282 281 281 281 280
301 309 314 317 319 319 320 321 322 322 321 320 319 317 317 316 316 315 315 315 314 314 314 313 313 313 313 314 315 315 315 316 316 316 316 316 316 316 317 317 317 316 315 314 313 312 311 311 310 310 310 309 308 307 306 305 304 304 303 302 302 301 301 301 300 299 298 296 295 293 291 290 289 287 287 286 286 285 285 284 284 283 284 283 283 283 282 282
310 315 319 321 320 320 321 323 323 323 322 321 319 319 319 318 318 317 317 316 316 316 317 317 318 319 320 320 319 318 318 317 316 315 315 316 316 316 317 317 317 316 315 315 315 314 314 313 313 312 311 310 309 308 307 306 305 304 304 303 303 304 304 304 303 302 300 299 297 296 295 294 293 291 291 290 290 288 288 287 287 286 286 286 286 285 285 284
315 320 322 322 321 322 324 324 324 323 322 321 321 321 320 320 319 319 319 318 319 319 321 322 323 323 322 321 320 319 319 318 318 318 318 319 319 319 319 319 318 318 317 317 317 316 316 315 314 313 312 311 310 309 308 307 307 306 306 306 306 307 308 308 308 308 306 304 303 302 300 299 298 297 296 295 293 292 291 290 290 290 289 289 288 288 287 287
319 323 322 321 323 325 325 325 324 324 322 322 323 322 321 321 321 321 321 321 322 323 325 326 325 324 323 322 321 320 320 320 321 321 322 323 323 323 322 321 321 320 319 318 318 317 316 316 315 314 314 313 313 312 311 311 310 310 309 309 310 311 311 312 311 310 308 306 305 304 302 301 301 300 299 297 296 295 294 294 293 292 291 291 290 290 290 290
321 323 322 324 326 326 326 326 325 324 324 324 324 323 323 323 323 322 323 324 325 325 326 325 324 324 324 323 322 321 321 322 323 324 324 324 323 323 322 322 322 321 320 319 318 318 317 317 316 316 316 316 315 315 314 313 312 311 311 311 312 313 313 313 312 311 309 305 305 305 304 304 303 300 299 298 297 297 296 296 295 294 293 293 292 292 292 292
322 323 325 327 327 327 326 326 325 326 326 326 325 325 325 324 324 325 326 327 327 327 327 327 325 325 324 323 322 322 323 324 326 326 326 326 326 326 325 324 323 322 321 320 320 319 319 319 319 319 319 318 317 316 315 314 313 313 313 314 315 315 315 315 314 313 311 308 307 307 307 307 306 303 301 300 299 299 298 297 297 296 295 294 293 293 293 292
324 327 329 328 327 327 327 326 327 327 327 327 327 326 325 325 327 328 328 327 327 328 328 326 325 324 323 323 322 323 326 327 328 329 329 329 328 327 326 325 324 323 322 321 321 321 321 321 321 321 321 320 319 318 317 316 315 315 316 317 318 318 318 317 316 316 315 313 311 309 309 310 308 305 304 303 302 301 300 299 298 297 296 296 296 296 296 296
328 330 329 329 328 327 327 327 328 328 328 328 327 326 327 329 330 329 328 329 329 328 327 325 324 323 323 323 325 327 329 330 330 331 331 330 328 327 326 325 324 323 322 322 323 323 323 323 323 323 323 322 321 320 319 318 317 318 319 320 321 320 319 318 317 317 317 316 313 310 311 312 310 307 307 306 305 304 304 303 302 301 301 301 301 300 299 298
330 330 329 329 328 328 328 329 329 329 328 327 327 329 331 331 330 329 329 330 329 327 325 324 324 323 324 326 329 331 332 332 333 332 331 330 329 328 327 325 324 324 324 324 324 324 324 324 325 325 325 324 323 321 320 319 319 320 321 322 322 321 320 319 317 317 316 316 315 313 314 315 313 312 311 310 309 309 309 309 307 306 305 304 302 300 299 298
330 329 329 330 329 329 329 329 329 329 328 329 331 332 332 331 331 331 331 329 327 325 324 324 324 325 328 331 332 333 334 335 334 333 332 331 330 329 328 327 326 326 326 326 326 325 325 326 326 326 325 324 323 322 321 321 321 321 322 322 323 322 321 320 319 318 318 319 318 317 317 318 317 316 315 314 314 314 314 313 310 309 307 306 305 305 305 305
329 329 330 330 329 329 329 329 330 330 331 332 333 333 332 332 332 332 330 327 326 325 324 325 326 329 332 334 334 335 336 336 335 334 333 333 331 330 329 329 328 328 328 327 327 327 326 326 326 326 326 325 324 323 322 321 321 321 322 323 324 324 324 323 321 321 322 322 321 319 320 321 320 320 320 319 319 319 319 317 315 314 314 314 313 313 313 313
329 330 330 330 329 329 330 331 332 332 333 334 334 333 333 333 331 329 327 326 325 325 325 327 330 333 335 335 337 338 338 337 336 335 334 334 333 331 331 330 330 329 329 328 328 328 327 327 327 327 326 325 324 323 322 321 321 322 323 323 324 326 326 326 324 324 323 323 323 322 321 322 323 323 324 324 324 325 324 323 322 322 322 321 321 320 319 319
329 330 330 330 330 330 331 332 333 334 334 334 334 334 332 331 329 326 325 325 325 326 329 332 334 335 336 337 338 339 338 337 337 336 335 334 333 332 332 331 331 330 330 329 329 328 328 328 328 328 327 326 325 323 322 322 322 323 324 324 325 327 328 328 327 326 325 324 326 326 324 324 326 327 327 329 329 330 330 330 329 329 328 327 327 326 325 324
330 330 330 330 330 331 332 333 334 334 334 334 334 333 331 329 327 325 325 325 327 330 333 335 336 336 337 338 339 339 339 338 337 336 335 334 333 333 332 332 331 331 330 330 329 329 329 329 329 328 328 328 326 324 323 323 324 325 325 326 327 328 329 330 330 329 329 328 330 332 330 328 329 330 330 332 333 334 336 336 336 335 335 334 333 332 330 329
330 330 330 330 331 332 333 334 334 334 333 333 333 332 329 327 326 325 325 327 330 334 335 336 337 337 338 339 339 339 339 338 337 336 335 334 334 333 333 332 332 331 331 331 330 330 330 330 330 329 329 328 327 326 325 325 325 327 328 329 329 328 329 332 334 334 333 333 333 336 336 333 334 335 336 336 337 339 341 341 341 341 340 339 338 337 336 334
330 330 330 330 331 333 334 333 333 333 333 333 332 330 328 326 325 325 327 330 333 335 336 337 338 338 338 338 338 338 338 338 337 336 335 335 334 334 333 333 332 332 332 331 331 331 331 331 331 330 329 328 327 326 325 325 326 328 330 331 330 330 330 333 337 338 338 338 336 337 340 339 339 340 340 341 341 342 345 346 345 345 345 344 343 342 341 339
330 330 330 330 332 333 333 333 333 333 333 332 331 329 327 326 326 327 330 332 334 336 337 337 337 338 338 338 338 338 338 338 337 336 336 335 335 334 334 333 333 333 333 333 333 333 332 333 332 332 331 330 329 328 326 326 327 328 331 333 333 333 333 334 339 341 341 342 340 339 340 342 343 343 343 344 345 345 348 350 349 348 348 348 347 346 344 343
330 330 330 331 332 333 333 332 332 332 332 331 330 328 327 326 327 329 331 333 335 336 337 337 337 337 338 338 338 338 338 338 337 336 336 336 335 335 334 334 334 334 334 334 335 335 335 335 334 334 334 332 331 330 329 328 329 330 333 335 336 336 336 336 339 344 343 342 343 342 341 343 345 346 345 346 347 347 349 351 350 350 350 349 348 347 346 344
329 329 330 331 333 333 332 332 332 332 332 331 330 329 327 326 328 329 331 333 335 336 337 337 338 338 338 339 339 339 339 338 337 337 336 336 336 335 335 335 335 335 336 336 337 337 337 337 337 336 336 336 333 332 332 331 332 333 334 338 339 339 338 337 339 343 343 342 343 345 344 343 344 346 346 347 347 347 348 350 350 350 351 350 349 348 347 346
329 329 330 332 333 332 332 332 332 332 332 331 329 328 327 327 329 330 331 333 335 337 337 337 338 338 339 339 339 338 338 338 337 337 336 336 336 336 336 336 336 337 338 338 338 339 339 339 339 338 338 339 337 335 334 334 334 335 337 339 340 340 339 337 338 342 343 341 342 344 345 344 344 345 346 347 347 346 347 350 350 350 351 350 349 349 348 347
328 329 331 333 333 332 332 332 332 332 332 331 329 328 327 328 329 330 332 334 336 337 337 338 338 338 339 339 338 338 338 338 338 337 337 337 337 337 337 338 338 339 340 340 340 340 340 340 341 340 340 341 340 338 336 336 337 337 337 339 340 341 341 338 337 340 342 341 342 343 344 344 344 345 346 346 347 346 346 349 350 349 350 350 350 349 348 348
329 330 332 333 333 332 331 331 332 332 332 330 328 328 327 328 330 331 333 335 336 337 337 337 338 338 338 338 338 338 338 338 338 338 337 337 337 338 339 340 340 341 341 341 340 340 340 340 341 342 340 341 341 340 337 337 337 337 337 338 340 341 341 339 336 339 342 342 342 342 343 344 345 346 346 346 346 345 345 348 349 349 350 350 350 350 349 348
329 331 333 333 333 332 331 331 332 332 331 329 328 327 328 329 331 332 334 335 336 337 337 337 338 338 338 338 338 338 338 338 338 338 338 338 339 341 342 341 342 342 342 341 341 341 341 340 341 342 342 341 341 341 338 337 338 338 337 338 340 340 341 339 336 339 342 341 340 341 343 344 345 345 346 346 346 345 344 347 348 348 349 350 350 349 349 348
Height
10698 10699 10701 10702 10703 10705 10707 10709 10712 10714 10715 10716 10717 10717 10717 10718 10719 10720 10721 10721 10722 10723 10723 10724 10724 10724 10724 10725 10726 10727 10727 10727 10727 10728 10728 10727 10727 10727 10728 10728 10728 10729 10729 10728 10729 10729 10729 10729 10728 10729 10728 10727 10726 10726 10727 10725 10725 10725 10722 10719 10717 10719 10723 10722 10716 10712 10713 10716 10718 10719 10718 10716 10712 10710 10713 10715 10715 10713 10711 10709 10707 10705 10704 10703 10703 10703 10703 10702
10696 10697 10699 10700 10702 10703 10705 10708 10710 10712 10714 10714 10715 10716 10716 10716 10716 10717 10718 10719 10719 10720 10720 10721 10721 10721 10721 10720 10721 10723 10723 10724 10724 10724 10723 10724 10724 10724 10723 10723 10724 10724 10725 10724 10724 10724 10724 10724 10723 10724 10723 10722 10721 10721 10721 10719 10719 10719 10716 10712 10711 10715 10718 10714 10708 10704 10706 10711 10715 10716 10712 10709 10707 10706 10706 10706 10706 10706 10704 10702 10700 10697 10696 10694 10693 10694 10694 10694
10694 10695 10697 10698 10700 10702 10703 10705 10707 10710 10712 10712 10713 10714 10714 10714 10714 10714 10715 10716 10716 10717 10717 10718 10718 10719 10719 10718 10718 10719 10720 10720 10720 10720 10719 10719 10719 10719 10719 10719 10719 10719 10719 10719 10719 10719 10719 10719 10718 10718 10718 10717 10715 10715 10715 10712 10713 10713 10708 10705 10705 10708 10710 10706 10701 10697 10699 10704 10710 10712 10708 10703 10700 10698 10698 10697 10697 10699 10698 10695 10692 10689 10686 10686 10685 10684 10685 10685
10693 10694 10695 10697 10698 10700 10701 10703 10705 10707 10709 10710 10711 10711 10712 10712 10712 10712 10712 10713 10713 10714 10714 10715 10715 10715 10716 10716 10716 10716 10716 10717 10717 10716 10716 10715 10714 10714 10714 10714 10714 10714 10714 10713 10714 10714 10713 10713 10713 10712 10712 10711 10709 10708 10709 10706 10705 10706 10701 10699 10699 10700 10701 10698 10694 10691 10692 10696 10703 10707 10705 10698 10691 10687 10688 10689 10689 10690 10689 10686 10684 10681 10678 10676 10676 10676 10675 10675
10691 10692 10694 10695 10697 10698 10700 10701 10703 10705 10706 10708 10709 10709 10710 10710 10710 10710 10710 10711 10711 10711 10711 10711 10712 10712 10712 10712 10712 10712 10713 10713 10712 10712 10712 10711 10710 10709 10709 10709 10708 10708 10708 10708 10707 10707 10707 10707 10706 10706 10705 10706 10704 10701 10702 10700 10698 10698 10694 10692 10692 10692 10691 10688 10685 10686 10687 10689 10694 10699 10697 10690 10684 10680 10679 10679 10680 10679 10678 10676 10675 10674 10671 10668 10666 10666 10666 10665
10690 10691 10692 10694 10695 10697 10698 10699 10700 10702 10703 10705 10707 10707 10708 10708 10708 10708 10709 10709 10709 10709 10709 10709 10709 10709 10709 10708 10708 10707 10708 10708 10708 10708 10707 10707 10706 10706 10705 10704 10703 10702 10702 10701 10701 10700 10700 10700 10699 10698 10697 10698 10698 10695 10694 10692 10690 10690 10687 10686 10685 10682 10682 10679 10677 10679 10682 10683 10685 10687 10684 10681 10677 10674 10670 10668 10668 10668 10666 10665 10665 10664 10663 10660 10657 10655 10654 10654
10689 10690 10691 10692 10693 10695 10696 10697 10698 10700 10701 10702 10704 10705 10705 10705 10705 10706 10706 10707 10707 10707 10707 10707 10707 10706 10705 10705 10705 10704 10704 10703 10703 10703 10703 10702 10701 10700 10700 10699 10698 10697 10697 10696 10695 10695 10694 10694 10693 10691 10690 10690 10689 10687 10687 10684 10681 10680 10679 10679 10677 10673 10672 10672 10671 10674 10676 10676 10675 10673 10672 10672 10671 10667 10663 10659 10656 10655 10654 10653 10653 10653 10653 10652 10650 10647 10644 10643
10688 10689 10690 10690 10691 10693 10694 10695 10697 10698 10699 10700 10701 10701 10702 10702 10703 10703 10704 10704 10704 10705 10705 10704 10704 10703 10703 10702 10702 10702 10701 10700 10699 10699 10698 10698 10696 10695 10695 10694 10693 10692 10691 10690 10689 10688 10687 10688 10687 10684 10684 10683 10682 10680 10679 10676 10672 10669 10667 10668 10668 10665 10663 10662 10664 10669 10669 10666 10663 10661 10661 10663 10661 10658 10655 10651 10647 10643 10641 10641 10641 10642 10642 10642 10640 10638 10635 10632
10686 10687 10688 10689 10690 10691 10692 10693 10695 10696 10697 10697 10698 10698 10699 10699 10700 10700 10701 10701 10701 10702 10701 10701 10701 10700 10700 10699 10698 10698 10697 10696 10696 10695 10694 10693 10692 10691 10690 10689 10688 10687 10686 10684 10683 10682 10681 10681 10680 10678 10677 10676 10675 10673 10671 10668 10666 10661 10657 10656 10658 10658 10656 10654 10655 10659 10659 10654 10650 10650 10651 10652 10650 10648 10646 10641 10636 10634 10631 10630 10629 10630 10630 10630 10629 10627 10625 10622
10685 10686 10687 10688 10689 10690 10691 10691 10692 10693 10694 10694 10695 10695 10696 10696 10697 10697 10698 10698 10698 10698 10698 10698 10697 10696 10696 10695 10694 10694 10693 10692 10691 10690 10689 10688 10687 10686 10685 10683 10682 10681 10679 10678 10677 10676 10675 10674 10674 10672 10671 10670 10668 10666 10663 10660 10658 10655 10649 10647 10651 10652 10650 10647 10646 10647 10647 10643 10641 10641 10641 10641 10639 10638 10636 10630 10627 10625 10623 10620 10619 10618 10617 10617 10616 10615 10614 10612
10684 10684 10685 10686 10687 10688 10688 10689 10690 10690 10691 10691 10692 10692 10693 10693 10693 10694 10694 10694 10694 10694 10694 10693 10693 10692 10692 10691 10690 10689 10688 10687 10686 10685 10684 10682 10681 10680 10678 10677 10676 10674 10673 10672 10671 10669 10668 10667 10667 10666 10665 10664 10662 10658 10654 10651 10649 10648 10645 10642 10645 10647 10643 10640 10638 10636 10634 10633 10633 10632 10630 10630 10628 10627 10624 10620 10617 10616 10613 10611 10609 10607 10606 10604 10603 10602 10600 10598
10683 10683 10684 10684 10685 10685 10686 10686 10687 10688 10688 10688 10689 10689 10690 10690 10690 10690 10690 10690 10690 10689 10689 10689 10689 10688 10687 10687 10686 10684 10683 10682 10680 10679 10678 10676 10675 10673 10672 10671 10669 10668 10666 10665 10663 10662 10661 10660 10659 10658 10657 10656 10653 10649 10645 10643 10642 10641 10639 10637 10639 10639 10634 10631 10629 10627 10625 10623 10624 10622 10619 10618 10616 10615 10613 10609 10607 10605 10603 10601 10599 10597 10595 10592 10590 10588 10586 10584
10682 10682 10682 10682 10683 10683 10684 10684 10684 10685 10685 10686 10686 10686 10686 10686 10686 10686 10686 10686 10685 10685 10685 10684 10684 10683 10683 10682 10680 10679 10677 10676 10674 10673 10672 10670 10669 10667 10666 10665 10663 10661 10659 10658 10656 10654 10653 10652 10651 10650 10648 10646 10643 10639 10636 10635 10635 10634 10630 10628 10630 10628 10623 10621 10620 10619 10617 10615 10614 10611 10608 10608 10606 10604 10602 10599 10596 10594 10592 10590 10588 10586 10583 10580 10577 10574 10572 10570
10680 10681 10681 10681 10681 10681 10682 10682 10682 10683 10683 10683 10683 10683 10683 10683 10683 10682 10682 10682 10681 10681 10680 10680 10679 10678 10678 10676 10675 10673 10672 10670 10668 10667 10665 10664 10662 10661 10659 10657 10656 10654 10652 10650 10648 10647 10646 10644 10643 10641 10639 10637 10633 10630 10629 10627 10627 10625 10619 10617 10620 10618 10614 10613 10611 10610 10608 10606 10604 10601 10598 10598 10596 10594 10591 10589 10586 10584 10581 10579 10576 10573 10570 10567 10564 10561 10559 10556
10679 10679 10679 10679 10679 10680 10680 10680 10680 10680 10680 10680 10680 10680 10680 10679 10679 10679 10678 10678 10677 10676 10675 10675 10674 10673 10672 10671 10669 10668 10666 10665 10663 10661 10659 10657 10656 10655 10653 10651 10649 10647 10645 10643 10641 10639 10638 10636 10634 10633 10630 10628 10625 10622 10621 10619 10618 10615 10609 10606 10608 10606 10604 10603 10602 10599 10597 10596 10594 10590 10587 10586 10584 10582 10580 10577 10575 10573 10569 10566 10562 10559 10556 10553 10550 10548 10545 10543
10678 10678 10677 10677 10678 10678 10678 10678 10678 10678 10677 10677 10677 10677 10676 10676 10675 10675 10674 10673 10672 10671 10670 10669 10668 10667 10667 10665 10664 10662 10661 10659 10657 10655 10653 10651 10650 10648 10646 10644 10642 10640 10638 10635 10633 10631 10630 10629 10626 10624 10621 10619 10616 10612 10611 10610 10608 10604 10599 10595 10594 10593 10592 10592 10591 10588 10585 10584 10582 10578 10574 10572 10571 10569 10566 10563 10561 10558 10555 10552 10548 10545 10542 10539 10536 10534 10531 10528
10676 10676 10676 10676 10676 10676 10676 10676 10675 10675 10674 10674 10673 10673 10672 10672 10671 10670 10670 10669 10668 10667 10666 10665 10664 10663 10662 10660 10659 10657 10655 10653 10651 10649 10647 10645 10643 10641 10639 10637 10635 10633 10630 10627 10625 10623 10622 10620 10617 10614 10612 10609 10606 10603 10601 10600 10598 10594 10590 10585 10583 10582 10580 10579 10579 10577 10574 10572 10569 10565 10561 10560 10558 10556 10553 10549 10546 10543 10540 10537 10533 10531 10528 10525 10522 10519 10516 10513
10675 10675 10675 10675 10675 10674 10674 10673 10673 10672 10671 10671 10670 10670 10669 10668 10668 10667 10666 10665 10664 10663 10662 10661 10660 10659 10657 10655 10653 10651 10649 10647 10645 10643 10641 10639 10637 10635 10632 10629 10628 10625 10622 10619 10617 10615 10613 10612 10609 10606 10603 10600 10597 10593 10590 10589 10587 10585 10581 10576 10573 10571 10569 10568 10568 10566 10562 10559 10555 10551 10549 10547 10545 10542 10539 10536 10533 10529 10525 10522 10519 10517 10514 10511 10508 10505 10502 10499
10674 10674 10674 10673 10673 10672 10672 10671 10670 10670 10669 10669 10668 10667 10667 10666 10665 10664 10663 10662 10661 10660 10659 10657 10655 10654 10652 10649 10647 10645 10643 10641 10639 10637 10635 10633 10630 10628 10625 10622 10620 10618 10614 10610 10608 10607 10605 10602 10600 10598 10596 10592 10589 10585 10581 10579 10577 10574 10572 10568 10564 10561 10560 10558 10558 10556 10552 10548 10543 10539 10536 10534 10531 10527 10525 10523 10520 10516 10513 10510 10506 10503 10500 10497 10494 10490 10487 10484
10673 10672 10672 10672 10671 10670 10670 10669 10669 10668 10667 10667 10666 10665 10664 10663 10662 10661 10660 10659 10657 10656 10654 10653 10651 10649 10646 10644 10641 10639 10637 10634 10632 10630 10628 10625 10623 10621 10618 10615 10613 10610 10606 10602 10600 10599 10597 10594 10592 10590 10588 10586 10582 10578 10575 10571 10567 10564 10562 10560 10556 10552 10551 10550 10550 10548 10542 10538 10535 10531 10527 10523 10519 10514 10511 10509 10506 10503 10500 10497 10493 10490 10486 10483 10479 10476 10472 10469
10672 10671 10671 10670 10669 10669 10668 10668 10667 10666 10665 10665 10664 10663 10662 10661 10660 10658 10657 10655 10654 10652 10650 10648 10646 10644 10641 10638 10635 10633 10631 10628 10625 10622 10620 10618 10616 10614 10611 10608 10606 10603 10600 10596 10594 10592 10590 10587 10585 10582 10580 10578 10575 10572 10568 10564 10560 10557 10554 10551 10548 10544 10541 10541 10542 10539 10533 10529 10526 10523 10518 10513 10509 10504 10501 10498 10494 10491 10487 10483 10480 10476 10472 10469 10465 10462 10458 10454
10670 10670 10669 10669 10668 10667 10667 10666 10665 10665 10664 10663 10662 10661 10659 10658 10657 10655 10653 10651 10649 10648 10645 10643 10640 10638 10635 10632 10629 10627 10624 10621 10618 10615 10613 10611 10609 10607 10605 10602 10600 10597 10594 10591 10588 10586 10584 10581 10578 10575 10573 10571 10568 10565 10561 10558 10554 10550 10547 10543 10540 10537 10533 10531 10533 10531 10524 10520 10517 10513 10508 10503 10499 10495 10491 10488 10484 10481 10477 10472 10468 10464 10460 10456 10452 10448 10444 10440
10669 10668 10668 10667 10666 10666 10665 10665 10664 10663 10662 10661 10660 10658 10656 10655 10653 10651 10649 10647 10644 10642 10640 10637 10634 10631 10628 10625 10622 10620 10617 10615 10612 10610 10608 10606 10603 10601 10599 10597 10594 10592 10589 10585 10582 10580 10577 10575 10571 10568 10566 10563 10561 10559 10555 10551 10547 10544 10540 10536 10532 10529 10525 10522 10523 10522 10516 10512 10509 10504 10498 10492 10488 10484 10480 10476 10473 10470 10466 10461 10457 10453 10448 10444 10439 10435 10431 10426
10668 10667 10667 10666 10665 10664 10664 10664 10663 10662 10661 10659 10658 10656 10654 10651 10649 10647 10644 10642 10639 10636 10634 10631 10628 10625 10622 10619 10617 10615 10612 10610 10608 10605 10603 10601 10599 10596 10593 10591 10588 10586 10584 10581 10579 10576 10573 10570 10567 10564 10560 10557 10555 10552 10550 10546 10542 10538 10534 10530 10525 10521 10518 10514 10513 10512 10507 10503 10501 10496 10490 10483 10478 10473 10468 10465 10462 10459 10455 10451 10446 10442 10437 10432 10428 10423 10418 10413
10667 10666 10666 10665 10664 10664 10663 10662 10661 10660 10658 10657 10655 10653 10650 10648 10645 10642 10640 10637 10634 10631 10629 10625 10622 10619 10617 10614 10612 10610 10608 10605 10603 10601 10599 10596 10594 10592 10589 10586 10583 10581 10579 10577 10574 10572 10569 10566 10563 10559 10556 10552 10549 10545 10543 10540 10536 10533 10529 10525 10519 10514 10511 10506 10504 10503 10498 10494 10491 10487 10482 10477 10469 10460 10456 10454 10450 10446 10442 10438 10434 10429 10425 10420 10416 10411 10406 10401
10666 10665 10664 10664 10663 10663 10662 10661 10659 10658 10656 10654 10652 10649 10647 10644 10641 10638 10635 10632 10629 10626 10623 10620 10617 10615 10612 10610 10608 10606 10603 10601 10599 10597 10594 10592 10589 10587 10585 10582 10579 10577 10574 10572 10570 10567 10564 10561 10557 10554 10550 10547 10544 10540 10536 10533 10529 10526 10522 10518 10513 10508 10503 10498 10495 10493 10490 10486 10481 10476 10472 10470 10463 10451 10443 10441 10438 10434 10429 10424 10419 10415 10410 10405 10401 10397 10391 10386
10665 10664 10664 10663 10663 10662 10660 10659 10657 10655 10653 10651 10648 10646 10643 10640 10637 10634 10631 10627 10624 10621 10618 10616 10613 10611 10608 10606 10604 10602 10599 10597 10595 10593 10590 10588 10586 10584 10581 10578 10576 10573 10570 10567 10565 10562 10559 10555 10552 10548 10545 10541 10538 10534 10530 10526 10522 10518 10514 10509 10504 10500 10495 10489 10484 10481 10478 10475 10470 10465 10461 10459 10455 10444 10434 10430 10426 10422 10418 10411 10406 10401 10396 10391 10387 10382 10377 10371
10664 10664 10663 10662 10661 10660 10658 10656 10654 10652 10650 10647 10645 10642 10639 10636 10633 10629 10626 10622 10619 10616 10614 10612 10609 10607 10605 10602 10600 10598 10595 10593 10591 10589 10587 10585 10582 10580 10577 10574 10571 10568 10566 10563 10560 10557 10553 10550 10546 10543 10539 10536 10532 10528 10524 10520 10515 10511 10507 10503 10497 10492 10487 10482 10475 10469 10466 10464 10459 10454 10449 10446 10444 10435 10426 10421 10416 10411 10406 10399 10393 10387 10382 10377 10373 10369 10363 10357
10663 10663 10662 10661 10659 10658 10656 10654 10652 10649 10647 10644 10641 10638 10635 10632 10628 10624 10621 10618 10615 10613 10610 10608 10606 10604 10602 10599 10597 10594 10592 10590 10587 10585 10583 10581 10578 10576 10573 10570 10566 10563 10560 10558 10555 10552 10549 10545 10541 10537 10533 10530 10526 10522 10518 10514 10509 10504 10500 10496 10490 10484 10479 10474 10468 10460 10454 10450 10447 10443 10435 10432 10431 10423 10414 10411 10407 10401 10395 10388 10381 10374 10369 10365 10360 10354 10348 10342
10663 10662 10661 10659 10657 10656 10654 10651 10649 10646 10644 10641 10637 10634 10631 10627 10623 10620 10617 10614 10611 10609 10607 10605 10602 10600 10598 10596 10593 10591 10589 10586 10584 10581 10579 10577 10574 10571 10569 10566 10563 10559 10555 10554 10551 10547 10544 10541 10537 10532 10528 10524 10519 10515 10511 10507 10502 10497 10491 10486 10481 10476 10470 10464 10459 10453 10444 10437 10435 10431 10423 10418 10416 10412 10405 10400 10396 10390 10384 10377 10370 10364 10358 10352 10346 10340 10334 10328
10662 10660 10659 10657 10656 10654 10651 10649 10646 10643 10640 10637 10634 10630 10626 10623 10619 10616 10613 10611 10608 10606 10604 10601 10599 10596 10594 10592 10590 10588 10586 10584 10582 10579 10577 10575 10572 10569 10566 10563 10560 10556 10551 10548 10545 10541 10538 10534 10531 10527 10523 10519 10514 10509 10504 10500 10495 10490 10484 10478 10473 10467 10462 10455 10448 10442 10434 10426 10423 10419 10411 10404 10400 10398 10395 10389 10383 10377 10371 10365 10359 10353 10346 10340 10333 10327 10320 10315
10660 10659 10657 10656 10654 10652 10649 10646 10643 10640 10637 10634 10630 10626 10622 10618 10615 10613 10610 10608 10605 10603 10600 10598 10595 10593 10591 10589 10587 10585 10583 10581 10578 10576 10573 10570 10568 10565 10562 10558 10555 10552 10548 10543 10539 10535 10531 10527 10524 10520 10516 10512 10507 10502 10497 10492 10487 10482 10476 10470 10464 10458 10452 10445 10437 10429 10420 10412 10409 10407 10400 10394 10387 10383 10381 10377 10370 10364 10359 10354 10348 10341 10335 10328 10320 10313 10306 10301
10659 10657 10656 10654 10652 10649 10647 10644 10640 10637 10634 10630 10626 10622 10618 10615 10612 10610 10607 10604 10602 10599 10597 10595 10593 10591 10588 10586 10584 10582 10580 10578 10575 10572 10569 10566 10563 10560 10557 10553 10550 10547 10544 10540 10535 10531 10526 10522 10518 10513 10509 10504 10499 10493 10487 10482 10477 10473 10467 10461 10455 10449 10443 10438 10431 10423 10413 10402 10397 10395 10390 10386 10380 10372 10367 10363 10356 10351 10347 10342 10337 10330 10324 10317 10308 10301 10295 10289
10657 10656 10654 10652 10649 10646 10644 10641 10637 10634 10630 10626 10622 10618 10615 10612 10609 10607 10604 10602 10599 10597 10595 10593 10591 10589 10586 10584 10581 10579 10576 10574 10572 10569 10566 10563 10560 10557 10554 10550 10546 10542 10538 10534 10531 10527 10522 10517 10512 10507 10502 10497 10491 10485 10479 10474 10469 10465 10461 10455 10449 10443 10436 10432 10426 10419 10410 10398 10390 10387 10381 10379 10375 10365 10359 10353 10346 10340 10335 10330 10325 10318 10312 10305 10297 10290 10284 10277
10655 10654 10652 10649 10647 10644 10641 10638 10634 10631 10627 10623 10619 10615 10612 10609 10606 10604 10601 10599 10597 10594 10592 10590 10588 10586 10584 10582 10579 10576 10573 10571 10568 10565 10562 10559 10555 10552 10549 10545 10541 10537 10533 10529 10525 10521 10516 10511 10506 10500 10495 10489 10484 10479 10473 10467 10462 10457 10453 10448 10442 10435 10428 10422 10416 10410 10403 10393 10384 10379 10373 10371 10367 10356 10349 10344 10337 10331 10325 10319 10313 10306 10299 10293 10286 10279 10272 10265
10654 10652 10649 10647 10644 10641 10638 10634 10631 10627 10623 10619 10615 10612 10610 10607 10604 10601 10599 10597 10595 10592 10590 10588 10586 10584 10582 10580 10577 10574 10571 10567 10564 10561 10559 10555 10551 10548 10544 10540 10536 10532 10527 10523 10518 10514 10509 10504 10499 10494 10488 10482 10476 10471 10465 10460 10455 10449 10445 10440 10433 10426 10420 10413 10406 10401 10395 10386 10376 10368 10364 10363 10358 10348 10339 10334 10329 10323 10317 10311 10304 10296 10289 10282 10276 10269 10262 10255
10652 10649 10647 10644 10641 10638 10635 10631 10628 10624 10620 10616 10613 10610 10607 10604 10602 10599 10597 10595 10592 10590 10588 10586 10584 10582 10580 10577 10574 10571 10568 10565 10562 10559 10555 10552 10548 10544 10540 10536 10532 10527 10523 10518 10513 10508 10503 10498 10492 10486 10480 10474 10468 10462 10457 10452 10447 10442 10437 10432 10426 10418 10412 10406 10400 10395 10390 10382 10369 10359 10357 10356 10350 10342 10335 10328 10321 10316 10309 10303 10295 10287 10280 10273 10266 10260 10253 10246
10649 10647 10644 10641 10638 10635 10632 10628 10624 10620 10616 10613 10610 10607 10604 10602 10599 10597 10594 10592 10590 10588 10587 10584 10582 10580 10577 10574 10571 10568 10565 10562 10559 10556 10552 10548 10544 10540 10536 10532 10528 10523 10518 10513 10507 10502 10496 10491 10485 10479 10473 10467 10460 10454 10449 10444 10439 10434 10429 10424 10418 10411 10404 10398 10394 10390 10386 10380 10368 10355 10351 10349 10342 10335 10330 10322 10315 10308 10301 10293 10286 10279 10272 10266 10259 10252 10245 10238
10647 10645 10642 10639 10636 10632 10629 10625 10622 10618 10614 10610 10607 10604 10602 10599 10597 10595 10592 10590 10589 10587 10584 10582 10580 10577 10574 10571 10568 10565 10562 10559 10556 10552 10548 10544 10540 10536 10532 10528 10523 10518 10513 10508 10502 10496 10490 10484 10478 10472 10465 10459 10453 10447 10441 10436 10432 10427 10423 10418 10412 10405 10398 10390 10385 10381 10378 10373 10366 10355 10347 10342 10335 10329 10323 10315 10308 10302 10294 10286 10278 10272 10265 10257 10249 10241 10233 10225
10645 10642 10639 10636 10633 10630 10626 10623 10619 10615 10611 10608 10605 10602 10599 10597 10594 10592 10590 10589 10587 10584 10582 10580 10577 10574 10571 10568 10565 10562 10559 10556 10552 10548 10544 10540 10536 10532 10527 10523 10518 10513 10508 10503 10497 10491 10485 10479 10472 10466 10459 10453 10447 10441 10435 10430 10426 10422 10417 10411 10406 10399 10392 10384 10376 10371 10367 10363 10358 10350 10343 10337 10329 10322 10315 10308 10301 10294 10286 10278 10269 10262 10254 10245 10236 10229 10220 10212
10642 10640 10637 10633 10630 10627 10623 10619 10615 10611 10608 10605 10602 10599 10597 10595 10592 10590 10589 10587 10585 10582 10580 10577 10574 10571 10568 10565 10562 10559 10556 10552 10548 10544 10540 10536 10532 10527 10523 10518 10513 10508 10503 10497 10492 10486 10479 10472 10466 10460 10454 10448 10442 10437 10431 10424 10419 10415 10411 10406 10401 10395 10388 10379 10370 10362 10358 10355 10351 10343 10337 10332 10324 10316 10309 10301 10293 10286 10277 10268 10260 10251 10243 10235 10226 10218 10210 10202
10640 10637 10634 10631 10627 10624 10620 10616 10612 10608 10605 10603 10600 10597 10595 10593 10591 10589 10587 10585 10582 10580 10577 10574 10571 10568 10565 10562 10560 10556 10553 10549 10545 10541 10536 10532 10528 10523 10518 10513 10508 10503 10497 10491 10485 10479 10472 10466 10459 10453 10448 10442 10436 10431 10426 10419 10412 10407 10403 10399 10395 10390 10384 10376 10367 10358 10351 10347 10344 10336 10327 10323 10318 10309 10302 10294 10286 10278 10269 10259 10251 10243 10235 10226 10218 10210 10202 10194
10637 10634 10631 10628 10624 10621 10617 10613 10609 10606 10603 10600 10598 10595 10593 10591 10589 10587 10585 10583 10580 10577 10574 10572 10569 10566 10563 10560 10557 10553 10550 10546 10541 10537 10533 10529 10524 10519 10514 10508 10503 10497 10491 10485 10479 10472 10466 10459 10452 10446 10440 10435 10429 10424 10419 10414 10408 10401 10395 10390 10386 10382 10379 10372 10364 10355 10345 10337 10334 10330 10319 10312 10308 10302 10294 10286 10278 10270 10261 10251 10243 10234 10226 10217 10208 10200 10192 10184
10635 10632 10628 10625 10621 10618 10614 10610 10607 10604 10601 10598 10596 10593 10591 10589 10587 10585 10583 10580 10578 10575 10572 10569 10566 10563 10560 10557 10553 10550 10546 10542 10538 10534 10529 10525 10520 10515 10509 10504 10498 10491 10485 10478 10472 10466 10459 10453 10446 10439 10434 10428 10423 10418 10412 10408 10403 10397 10390 10383 10377 10374 10371 10367 10360 10351 10341 10330 10323 10322 10315 10302 10295 10291 10285 10277 10269 10261 10253 10243 10234 10225 10216 10207 10199 10190 10181 10172
10632 10629 10626 10622 10619 10615 10611 10607 10605 10602 10599 10596 10594 10592 10589 10587 10585 10583 10580 10578 10575 10572 10569 10566 10563 10560 10557 10554 10551 10547 10543 10539 10535 10530 10526 10521 10516 10510 10505 10499 10492 10486 10479 10472 10465 10459 10453 10448 10442 10435 10429 10424 10420 10414 10409 10404 10398 10393 10387 10379 10372 10366 10361 10359 10354 10346 10337 10327 10315 10310 10309 10299 10286 10278 10273 10266 10259 10252 10243 10233 10224 10216 10206 10197 10188 10179 10171 10163
10630 10626 10623 10619 10616 10612 10608 10605 10602 10599 10597 10594 10592 10590 10588 10585 10583 10581 10578 10575 10573 10570 10567 10564 10561 10558 10555 10552 10548 10544 10540 10535 10531 10526 10522 10517 10512 10506 10500 10494 10487 10480 10473 10466 10459 10452 10446 10441 10436 10430 10424 10418 10414 10409 10404 10400 10394 10388 10383 10376 10367 10359 10351 10347 10345 10338 10330 10323 10312 10300 10296 10293 10283 10272 10263 10255 10247 10239 10232 10224 10214 10205 10196 10187 10179 10170 10162 10154
10627 10624 10620 10617 10613 10609 10606 10603 10600 10597 10595 10592 10590 10588 10586 10583 10581 10579 10576 10573 10571 10568 10565 10561 10558 10555 10552 10548 10545 10541 10536 10532 10527 10523 10518 10513 10507 10501 10495 10488 10481 10474 10467 10460 10453 10446 10439 10433 10428 10424 10419 10413 10407 10402 10397 10393 10388 10382 10376 10369 10361 10352 10344 10337 10334 10329 10321 10316 10310 10297 10285 10280 10276 10267 10256 10247 10239 10231 10224 10217 10208 10199 10190 10181 10172 10163 10155 10146
10625 10621 10618 10614 10610 10607 10604 10601 10598 10595 10593 10590 10588 10586 10584 10581 10579 10576 10574 10571 10568 10566 10562 10559 10556 10552 10549 10545 10541 10537 10533 10528 10524 10519 10514 10508 10502 10496 10490 10483 10476 10469 10463 10455 10448 10441 10434 10428 10421 10416 10412 10407 10401 10396 10391 10385 10380 10375 10369 10362 10355 10346 10338 10330 10326 10323 10315 10307 10302 10295 10283 10272 10267 10261 10253 10243 10234 10226 10219 10212 10203 10195 10186 10177 10167 10158 10148 10138
10622 10619 10615 10612 10608 10604 10601 10599 10596 10593 10591 10588 10586 10584 10582 10579 10577 10574 10572 10569 10566 10563 10560 10556 10553 10550 10546 10542 10538 10534 10530 10525 10520 10515 10509 10503 10497 10491 10484 10478 10471 10464 10458 10451 10444 10437 10431 10424 10417 10409 10404 10400 10393 10388 10383 10378 10372 10366 10360 10354 10348 10341 10333 10325 10320 10317 10312 10302 10295 10290 10283 10272 10262 10255 10248 10239 10230 10221 10214 10208 10199 10189 10180 10171 10161 10151 10140 10130
10620 10616 10613 10609 10605 10602 10599 10596 10594 10591 10589 10586 10584 10582 10579 10577 10575 10572 10569 10567 10564 10560 10557 10554 10551 10547 10544 10540 10536 10531 10526 10521 10516 10510 10504 10498 10492 10485 10479 10472 10466 10459 10453 10446 10440 10434 10428 10421 10415 10407 10399 10394 10388 10380 10375 10370 10365 10359 10353 10348 10342 10336 10327 10318 10312 10310 10306 10298 10289 10282 10277 10270 10260 10250 10241 10233 10225 10216 10208 10202 10193 10182 10173 10164 10155 10145 10134 10124
10617 10614 10610 10606 10603 10600 10597 10594 10592 10589 10587 10584 10582 10580 10577 10575 10572 10570 10567 10564 10561 10558 10555 10551 10548 10544 10541 10537 10532 10528 10523 10517 10512 10506 10499 10493 10487 10480 10474 10467 10461 10454 10448 10442 10436 10430 10424 10418 10413 10406 10397 10391 10385 10378 10370 10365 10361 10355 10350 10344 10338 10331 10324 10313 10304 10301 10297 10290 10283 10276 10269 10262 10254 10246 10237 10228 10218 10210 10201 10195 10187 10178 10168 10159 10149 10139 10129 10118
10615 10611 10607 10604 10601 10598 10595 10592 10590 10587 10585 10582 10580 10577 10575 10572 10570 10567 10564 10561 10558 10555 10552 10548 10545 10541 10537 10533 10528 10524 10518 10513 10508 10502 10495 10488 10482 10476 10469 10462 10456 10450 10444 10438 10432 10426 10421 10414 10409 10404 10396 10388 10382 10376 10368 10362 10358 10352 10345 10340 10334 10327 10321 10311 10299 10292 10289 10283 10276 10270 10263 10255 10248 10240 10233 10225 10214 10204 10195 10189 10182 10173 10164 10154 10143 10133 10124 10114